Location: Fontevrault
(47.1823°N, 0.0493°E)
Time: 07:52:38
(UTC+00:00)

Cosmos 2263 Rocket - Pass Details

Date: 24 October 2021
Orbit: 825 x 847 km, 71.0° (Epoch: 01 December)

Event Time Altitude Azimuth Distance (km) Brightness Sun altitude
Rises 18:31:39 0° 324° (NW) 3,372 5.9 -16.9°
Reaches altitude 10° 18:34:24 10° 312° (NW) 2,434 5.3 -17.3°
Maximum altitude 18:38:59 27° 257° (WSW) 1,540 4.3 -18.1°
Drops below altitude 10° 18:43:34 10° 201° (SSW) 2,423 4.8 -18.9°
Sets 18:46:19 0° 189° (S) 3,353 5.4 -19.4°
